Time,TemperatureF,DewpointF,PressureIn,WindDirection,WindDirectionDegrees,WindSpeedMPH,WindSpeedGustMPH,Humidity,HourlyPrecipIn,Conditions,Clouds,dailyrainin,SoftwareType,DateUTC
2013-04-05 00:00:00,50.9,11.3,30.02,SSE,160,8.0,10.0,20,0.00,,CLR,0.00,VWS V14.01,2013-04-05 06:00:00,
2013-04-05 00:04:00,51.1,11.4,30.01,SSE,148,5.0,10.0,20,0.00,,CLR,0.00,VWS V14.01,2013-04-05 06:04:00,
2013-04-05 00:09:00,51.3,11.6,30.01,SE,125,7.0,10.0,20,0.00,,CLR,0.00,VWS V14.01,2013-04-05 06:09:00,
2013-04-05 00:14:00,51.2,11.5,30.01,SW,226,4.0,10.0,20,0.00,,CLR,0.00,VWS V14.01,2013-04-05 06:14:00,
2013-04-05 00:19:00,50.1,12.8,30.01,WNW,285,0.0,10.0,22,0.00,,CLR,0.00,VWS V14.01,2013-04-05 06:19:00,
2013-04-05 00:24:00,48.0,12.9,30.01,WSW,246,0.0,10.0,24,0.00,,CLR,0.00,VWS V14.01,2013-04-05 06:24:00,
2013-04-05 00:30:00,46.8,12.9,30.01,West,277,0.0,0.0,25,0.00,,CLR,0.00,VWS V14.01,2013-04-05 06:30:00,
2013-04-05 00:35:00,46.6,11.8,30.00,NE,45,0.0,2.0,24,0.00,,CLR,0.00,VWS V14.01,2013-04-05 06:35:00,
2013-04-05 00:40:00,46.6,12.7,30.01,WNW,294,1.0,3.0,25,0.00,,CLR,0.00,VWS V14.01,2013-04-05 06:40:00,
2013-04-05 00:45:00,44.8,13.7,30.01,SW,224,0.0,3.0,28,0.00,,CLR,0.00,VWS V14.01,2013-04-05 06:45:00,
2013-04-05 00:50:00,43.9,13.7,30.01,NNE,23,0.0,3.0,29,0.00,,CLR,0.00,VWS V14.01,2013-04-05 06:50:00,
2013-04-05 00:55:00,43.5,13.4,30.00,NNE,23,0.0,3.0,29,0.00,,CLR,0.00,VWS V14.01,2013-04-05 06:55:00,
2013-04-05 01:00:00,43.0,13.7,30.00,SE,145,0.0,0.0,30,0.00,,CLR,0.00,VWS V14.01,2013-04-05 07:00:00,
2013-04-05 01:06:00,42.8,13.5,30.00,SE,131,2.0,2.0,30,0.00,,CLR,0.00,VWS V14.01,2013-04-05 07:06:00,
2013-04-05 01:11:00,43.0,13.7,30.00,ESE,110,0.0,2.0,30,0.00,,CLR,0.00,VWS V14.01,2013-04-05 07:11:00,
2013-04-05 01:16:00,42.7,13.4,30.00,East,96,1.0,2.0,30,0.00,,CLR,0.00,VWS V14.01,2013-04-05 07:16:00,
2013-04-05 01:21:00,42.8,12.8,30.00,East,94,0.0,2.0,29,0.00,,CLR,0.00,VWS V14.01,2013-04-05 07:21:00,
2013-04-05 01:26:00,42.6,12.6,30.00,WSW,249,0.0,2.0,29,0.00,,CLR,0.00,VWS V14.01,2013-04-05 07:26:00,
2013-04-05 01:30:00,42.3,13.1,30.00,NW,310,0.0,2.0,30,0.00,,CLR,0.00,VWS V14.01,2013-04-05 07:30:00,
2013-04-05 01:32:00,42.2,13.0,30.00,SSE,166,0.0,1.0,30,0.00,,CLR,0.00,VWS V14.01,2013-04-05 07:32:00,
2013-04-05 01:37:00,42.0,12.8,30.00,ESE,121,0.0,1.0,30,0.00,,CLR,0.00,VWS V14.01,2013-04-05 07:37:00,
2013-04-05 01:42:00,42.3,13.1,30.00,North,354,0.0,1.0,30,0.00,,CLR,0.00,VWS V14.01,2013-04-05 07:42:00,
2013-04-05 01:47:00,42.0,12.8,30.00,SSE,147,4.0,4.0,30,0.00,,CLR,0.00,VWS V14.01,2013-04-05 07:47:00,
2013-04-05 01:52:00,42.7,12.7,30.00,SE,143,0.0,4.0,29,0.00,,CLR,0.00,VWS V14.01,2013-04-05 07:52:00,
2013-04-05 01:57:00,43.3,12.4,30.00,East,88,1.0,4.0,28,0.00,,CLR,0.00,VWS V14.01,2013-04-05 07:57:00,
2013-04-05 02:00:00,43.1,12.2,30.00,East,88,1.0,4.0,28,0.00,,CLR,0.00,VWS V14.01,2013-04-05 08:00:00,
2013-04-05 02:03:00,43.7,11.9,29.99,East,87,0.0,1.0,27,0.00,,CLR,0.00,VWS V14.01,2013-04-05 08:03:00,
2013-04-05 02:08:00,44.5,11.8,29.99,NNW,341,0.0,1.0,26,0.00,,CLR,0.00,VWS V14.01,2013-04-05 08:08:00,
2013-04-05 02:13:00,44.9,12.1,29.99,NW,309,0.0,1.0,26,0.00,,CLR,0.00,VWS V14.01,2013-04-05 08:13:00,
2013-04-05 02:19:00,44.9,11.2,29.99,WNW,285,0.0,1.0,25,0.00,,CLR,0.00,VWS V14.01,2013-04-05 08:19:00,
2013-04-05 02:25:00,45.0,11.3,29.99,South,183,1.0,2.0,25,0.00,,CLR,0.00,VWS V14.01,2013-04-05 08:25:00,
2013-04-05 02:30:00,45.5,10.8,29.98,SE,143,1.0,2.0,24,0.00,,CLR,0.00,VWS V14.01,2013-04-05 08:30:00,
2013-04-05 02:35:00,45.6,11.8,29.99,NW,310,0.0,3.0,25,0.00,,CLR,0.00,VWS V14.01,2013-04-05 08:35:00,
2013-04-05 02:41:00,44.5,11.8,29.99,NW,310,0.0,3.0,26,0.00,,CLR,0.00,VWS V14.01,2013-04-05 08:41:00,
2013-04-05 02:47:00,44.4,11.7,29.98,East,79,0.0,3.0,26,0.00,,CLR,0.00,VWS V14.01,2013-04-05 08:47:00,
2013-04-05 02:52:00,44.3,11.6,29.98,NE,56,0.0,3.0,26,0.00,,CLR,0.00,VWS V14.01,2013-04-05 08:52:00,
2013-04-05 02:57:00,44.2,11.5,29.98,North,11,0.0,3.0,26,0.00,,CLR,0.00,VWS V14.01,2013-04-05 08:57:00,
2013-04-05 03:00:00,44.2,11.5,29.97,NNW,333,0.0,3.0,26,0.00,,CLR,0.00,VWS V14.01,2013-04-05 09:00:00,
2013-04-05 03:02:00,43.9,11.2,29.98,SW,214,1.0,2.0,26,0.00,,CLR,0.00,VWS V14.01,2013-04-05 09:02:00,
2013-04-05 03:08:00,42.8,12.0,29.98,South,179,0.0,2.0,28,0.00,,CLR,0.00,VWS V14.01,2013-04-05 09:08:00,
2013-04-05 03:13:00,42.4,12.4,29.98,SW,226,1.0,3.0,29,0.00,,CLR,0.00,VWS V14.01,2013-04-05 09:13:00,
2013-04-05 03:18:00,41.8,12.7,29.98,SSE,156,2.0,3.0,30,0.00,,CLR,0.00,VWS V14.01,2013-04-05 09:18:00,
2013-04-05 03:23:00,41.8,12.7,29.98,SE,127,0.0,3.0,30,0.00,,CLR,0.00,VWS V14.01,2013-04-05 09:23:00,
2013-04-05 03:28:00,42.2,13.0,29.98,North,349,0.0,3.0,30,0.00,,CLR,0.00,VWS V14.01,2013-04-05 09:28:00,
2013-04-05 03:30:00,42.2,13.0,29.98,North,357,0.0,3.0,30,0.00,,CLR,0.00,VWS V14.01,2013-04-05 09:30:00,
2013-04-05 03:33:00,42.4,12.4,29.97,ENE,58,0.0,2.0,29,0.00,,CLR,0.00,VWS V14.01,2013-04-05 09:33:00,
2013-04-05 03:38:00,42.2,12.2,29.97,NE,56,3.0,4.0,29,0.00,,CLR,0.00,VWS V14.01,2013-04-05 09:38:00,
2013-04-05 03:45:00,41.9,12.0,29.97,East,80,3.0,4.0,29,0.00,,CLR,0.00,VWS V14.01,2013-04-05 09:45:00,
2013-04-05 03:50:00,42.5,11.7,29.97,East,100,0.0,4.0,28,0.00,,CLR,0.00,VWS V14.01,2013-04-05 09:50:00,
2013-04-05 03:55:00,42.1,11.4,29.97,South,187,3.0,4.0,28,0.00,,CLR,0.00,VWS V14.01,2013-04-05 09:55:00,
2013-04-05 04:00:00,42.3,11.5,29.97,SE,143,2.0,2.0,28,0.00,,CLR,0.00,VWS V14.01,2013-04-05 10:00:00,
2013-04-05 04:05:00,42.5,11.7,29.97,SE,141,1.0,4.0,28,0.00,,CLR,0.00,VWS V14.01,2013-04-05 10:05:00,
2013-04-05 04:10:00,42.5,10.9,29.97,SE,125,2.0,4.0,27,0.00,,CLR,0.00,VWS V14.01,2013-04-05 10:10:00,
2013-04-05 04:15:00,42.4,10.8,29.96,SE,143,2.0,4.0,27,0.00,,CLR,0.00,VWS V14.01,2013-04-05 10:15:00,
2013-04-05 04:23:00,42.4,11.6,29.96,SE,143,0.0,4.0,28,0.00,,CLR,0.00,VWS V14.01,2013-04-05 10:23:00,
2013-04-05 04:28:00,41.9,11.2,29.96,ESE,122,4.0,4.0,28,0.00,,CLR,0.00,VWS V14.01,2013-04-05 10:28:00,
2013-04-05 04:30:00,41.7,11.0,29.96,ESE,123,0.0,4.0,28,0.00,,CLR,0.00,VWS V14.01,2013-04-05 10:30:00,
2013-04-05 04:33:00,41.3,10.7,29.96,SE,124,2.0,4.0,28,0.00,,CLR,0.00,VWS V14.01,2013-04-05 10:33:00,
2013-04-05 04:38:00,41.0,11.2,29.96,SE,127,3.0,4.0,29,0.00,,CLR,0.00,VWS V14.01,2013-04-05 10:38:00,
2013-04-05 04:43:00,41.4,10.8,29.96,SE,124,4.0,4.0,28,0.00,,CLR,0.00,VWS V14.01,2013-04-05 10:43:00,
2013-04-05 04:48:00,41.6,10.9,29.96,SSE,163,0.0,4.0,28,0.00,,CLR,0.00,VWS V14.01,2013-04-05 10:48:00,
2013-04-05 04:54:00,41.4,10.8,29.96,South,190,1.0,5.0,28,0.00,,CLR,0.00,VWS V14.01,2013-04-05 10:54:00,
2013-04-05 04:59:00,41.3,10.7,29.96,ESE,120,1.0,5.0,28,0.00,,CLR,0.00,VWS V14.01,2013-04-05 10:59:00,
2013-04-05 05:00:00,41.3,10.7,29.96,ESE,120,1.0,5.0,28,0.00,,CLR,0.00,VWS V14.01,2013-04-05 11:00:00,
2013-04-05 05:05:00,41.6,10.9,29.96,East,89,2.0,2.0,28,0.00,,CLR,0.00,VWS V14.01,2013-04-05 11:05:00,
2013-04-05 05:10:00,41.6,11.7,29.96,East,94,2.0,4.0,29,0.00,,CLR,0.00,VWS V14.01,2013-04-05 11:10:00,
2013-04-05 05:15:00,40.9,11.9,29.95,East,98,3.0,6.0,30,0.00,,CLR,0.00,VWS V14.01,2013-04-05 11:15:00,
2013-04-05 05:20:00,40.8,11.8,29.95,ESE,105,3.0,6.0,30,0.00,,CLR,0.00,VWS V14.01,2013-04-05 11:20:00,
2013-04-05 05:25:00,41.0,12.0,29.95,East,97,3.0,6.0,30,0.00,,CLR,0.00,VWS V14.01,2013-04-05 11:25:00,
2013-04-05 05:30:00,41.1,11.3,29.95,ESE,120,3.0,6.0,29,0.00,,CLR,0.00,VWS V14.01,2013-04-05 11:30:00,
2013-04-05 05:32:00,41.4,11.5,29.95,ESE,120,3.0,4.0,29,0.00,,CLR,0.00,VWS V14.01,2013-04-05 11:32:00,
2013-04-05 05:37:00,41.8,11.1,29.95,SE,143,1.0,4.0,28,0.00,,CLR,0.00,VWS V14.01,2013-04-05 11:37:00,
2013-04-05 05:42:00,41.7,11.0,29.95,South,178,2.0,4.0,28,0.00,,CLR,0.00,VWS V14.01,2013-04-05 11:42:00,
2013-04-05 05:47:00,41.6,10.9,29.95,SSE,149,2.0,4.0,28,0.00,,CLR,0.00,VWS V14.01,2013-04-05 11:47:00,
2013-04-05 05:52:00,41.6,10.9,29.95,SE,139,1.0,4.0,28,0.00,,CLR,0.00,VWS V14.01,2013-04-05 11:52:00,
2013-04-05 05:58:00,42.2,11.4,29.95,ESE,117,3.0,4.0,28,0.00,,CLR,0.00,VWS V14.01,2013-04-05 11:58:00,
2013-04-05 06:00:00,42.2,10.6,29.95,ESE,120,2.0,4.0,27,0.00,,CLR,0.00,VWS V14.01,2013-04-05 12:00:00,
2013-04-05 06:03:00,41.9,11.2,29.95,ESE,118,2.0,3.0,28,0.00,,CLR,0.00,VWS V14.01,2013-04-05 12:03:00,
2013-04-05 06:08:00,42.2,11.4,29.95,East,99,3.0,4.0,28,0.00,,CLR,0.00,VWS V14.01,2013-04-05 12:08:00,
2013-04-05 06:13:00,42.5,10.9,29.95,East,98,0.0,4.0,27,0.00,,CLR,0.00,VWS V14.01,2013-04-05 12:13:00,
2013-04-05 06:20:00,41.7,11.0,29.95,SE,134,0.0,4.0,28,0.00,,CLR,0.00,VWS V14.01,2013-04-05 12:20:00,
2013-04-05 06:25:00,41.2,11.4,29.95,SE,130,0.0,4.0,29,0.00,,CLR,0.00,VWS V14.01,2013-04-05 12:25:00,
2013-04-05 06:30:00,41.2,11.4,29.95,East,96,0.0,0.0,29,0.00,,CLR,0.00,VWS V14.01,2013-04-05 12:30:00,
2013-04-05 06:35:00,40.8,11.8,29.95,South,187,2.0,3.0,30,0.00,,CLR,0.00,VWS V14.01,2013-04-05 12:35:00,
2013-04-05 06:40:00,39.9,11.0,29.95,SSE,160,0.0,3.0,30,0.00,,CLR,0.00,VWS V14.01,2013-04-05 12:40:00,
2013-04-05 06:45:00,40.0,11.1,29.95,SSE,148,0.0,3.0,30,0.00,,CLR,0.00,VWS V14.01,2013-04-05 12:45:00,
2013-04-05 06:50:00,40.5,11.5,29.95,ESE,113,1.0,4.0,30,0.00,,CLR,0.00,VWS V14.01,2013-04-05 12:50:00,
2013-04-05 06:56:00,40.6,11.6,29.95,ESE,116,1.0,4.0,30,0.00,,CLR,0.00,VWS V14.01,2013-04-05 12:56:00,
2013-04-05 07:00:00,40.7,11.7,29.95,ESE,106,0.0,4.0,30,0.00,,CLR,0.00,VWS V14.01,2013-04-05 13:00:00,
2013-04-05 07:02:00,40.4,12.2,29.95,ESE,105,0.0,1.0,31,0.00,,CLR,0.00,VWS V14.01,2013-04-05 13:02:00,
2013-04-05 07:07:00,39.9,12.4,29.95,ESE,102,1.0,2.0,32,0.00,,CLR,0.00,VWS V14.01,2013-04-05 13:07:00,
2013-04-05 07:12:00,40.3,12.1,29.96,ESE,110,0.0,2.0,31,0.00,,CLR,0.00,VWS V14.01,2013-04-05 13:12:00,
2013-04-05 07:17:00,39.8,12.4,29.96,ESE,109,1.0,2.0,32,0.00,,CLR,0.00,VWS V14.01,2013-04-05 13:17:00,
2013-04-05 07:22:00,39.5,12.8,29.95,ESE,110,0.0,2.0,33,0.00,,CLR,0.00,VWS V14.01,2013-04-05 13:22:00,
2013-04-05 07:28:00,39.3,12.6,29.96,East,79,0.0,2.0,33,0.00,,CLR,0.00,VWS V14.01,2013-04-05 13:28:00,
2013-04-05 07:30:00,39.4,12.7,29.96,East,79,0.0,2.0,33,0.00,,CLR,0.00,VWS V14.01,2013-04-05 13:30:00,
2013-04-05 07:33:00,39.3,13.3,29.96,ESE,108,2.0,3.0,34,0.00,,CLR,0.00,VWS V14.01,2013-04-05 13:33:00,
2013-04-05 07:38:00,39.3,13.3,29.96,ESE,104,0.0,3.0,34,0.00,,CLR,0.00,VWS V14.01,2013-04-05 13:38:00,
2013-04-05 07:43:00,39.7,13.6,29.96,ESE,107,0.0,3.0,34,0.00,,CLR,0.00,VWS V14.01,2013-04-05 13:43:00,
2013-04-05 07:48:00,40.5,13.7,29.95,ESE,123,1.0,3.0,33,0.00,,CLR,0.00,VWS V14.01,2013-04-05 13:48:00,
2013-04-05 07:55:00,41.6,15.3,29.95,ESE,122,0.0,3.0,34,0.00,,CLR,0.00,VWS V14.01,2013-04-05 13:55:00,
2013-04-05 08:00:00,42.4,15.4,29.95,SW,214,0.0,0.0,33,0.00,,CLR,0.00,VWS V14.01,2013-04-05 14:00:00,
2013-04-05 08:05:00,43.0,15.2,29.95,West,264,1.0,1.0,32,0.00,,CLR,0.00,VWS V14.01,2013-04-05 14:05:00,
2013-04-05 08:10:00,43.7,15.8,29.94,ESE,105,0.0,1.0,32,0.00,,CLR,0.00,VWS V14.01,2013-04-05 14:10:00,
2013-04-05 08:16:00,44.5,15.8,29.94,WNW,284,0.0,2.0,31,0.00,,CLR,0.00,VWS V14.01,2013-04-05 14:16:00,
2013-04-05 09:05:00,52.2,17.5,29.93,NW,315,2.0,2.0,25,0.00,,CLR,0.00,VWS V14.01,2013-04-05 15:05:00,
2013-04-05 09:10:00,52.6,17.8,29.92,WNW,294,2.0,2.0,25,0.00,,CLR,0.00,VWS V14.01,2013-04-05 15:10:00,
2013-04-05 09:15:00,53.4,18.5,29.92,NNW,332,0.0,3.0,25,0.00,,CLR,0.00,VWS V14.01,2013-04-05 15:15:00,
2013-04-05 09:22:00,54.2,16.2,29.91,WNW,302,1.0,3.0,22,0.00,,CLR,0.00,VWS V14.01,2013-04-05 15:22:00,
2013-04-05 09:27:00,54.1,16.1,29.92,WNW,300,1.0,4.0,22,0.00,,CLR,0.00,VWS V14.01,2013-04-05 15:27:00,
2013-04-05 09:30:00,53.8,15.9,29.91,NW,320,2.0,4.0,22,0.00,,CLR,0.00,VWS V14.01,2013-04-05 15:30:00,
2013-04-05 09:32:00,53.4,14.5,29.91,NNW,342,0.0,3.0,21,0.00,,CLR,0.00,VWS V14.01,2013-04-05 15:32:00,
2013-04-05 09:37:00,53.7,15.8,29.91,NW,304,0.0,3.0,22,0.00,,CLR,0.00,VWS V14.01,2013-04-05 15:37:00,
2013-04-05 09:42:00,54.2,16.2,29.91,WNW,298,3.0,3.0,22,0.00,,CLR,0.00,VWS V14.01,2013-04-05 15:42:00,
2013-04-05 09:48:00,54.3,15.2,29.91,West,273,1.0,4.0,21,0.00,,CLR,0.00,VWS V14.01,2013-04-05 15:48:00,
2013-04-05 09:53:00,55.6,15.2,29.91,East,97,0.0,4.0,20,0.00,,CLR,0.00,VWS V14.01,2013-04-05 15:53:00,
2013-04-05 09:58:00,56.1,15.6,29.91,NW,307,2.0,4.0,20,0.00,,CLR,0.00,VWS V14.01,2013-04-05 15:58:00,
2013-04-05 10:00:00,55.9,15.4,29.91,WNW,297,3.0,4.0,20,0.00,,CLR,0.00,VWS V14.01,2013-04-05 16:00:00,
2013-04-05 10:04:00,55.9,15.4,29.91,WNW,295,2.0,4.0,20,0.00,,CLR,0.00,VWS V14.01,2013-04-05 16:04:00,
2013-04-05 10:10:00,56.8,16.2,29.90,NNE,30,0.0,4.0,20,0.00,,CLR,0.00,VWS V14.01,2013-04-05 16:10:00,
2013-04-05 10:15:00,57.8,13.3,29.90,WNW,302,3.0,4.0,17,0.00,,CLR,0.00,VWS V14.01,2013-04-05 16:15:00,
2013-04-05 10:20:00,57.5,13.1,29.89,West,276,3.0,4.0,17,0.00,,CLR,0.00,VWS V14.01,2013-04-05 16:20:00,
2013-04-05 10:26:00,58.2,13.6,29.89,NW,316,2.0,7.0,17,0.00,,CLR,0.00,VWS V14.01,2013-04-05 16:26:00,
2013-04-05 10:30:00,58.6,12.6,29.89,West,277,4.0,7.0,16,0.00,,CLR,0.00,VWS V14.01,2013-04-05 16:30:00,
2013-04-05 10:32:00,58.5,12.5,29.89,West,277,1.0,8.0,16,0.00,,CLR,0.00,VWS V14.01,2013-04-05 16:32:00,
2013-04-05 10:37:00,58.4,12.4,29.88,West,280,5.0,8.0,16,0.00,,CLR,0.00,VWS V14.01,2013-04-05 16:37:00,
2013-04-05 10:42:00,58.8,14.1,29.88,West,281,2.0,8.0,17,0.00,,CLR,0.00,VWS V14.01,2013-04-05 16:42:00,
2013-04-05 10:48:00,58.8,12.7,29.88,WSW,242,4.0,8.0,16,0.00,,CLR,0.00,VWS V14.01,2013-04-05 16:48:00,
2013-04-05 10:53:00,59.2,11.6,29.88,WNW,289,4.0,9.0,15,0.00,,CLR,0.00,VWS V14.01,2013-04-05 16:53:00,
2013-04-05 10:58:00,59.2,13.1,29.87,WNW,302,6.0,9.0,16,0.00,,CLR,0.00,VWS V14.01,2013-04-05 16:58:00,
2013-04-05 11:00:00,59.3,11.7,29.87,NNE,32,1.0,9.0,15,0.00,,CLR,0.00,VWS V14.01,2013-04-05 17:00:00,
2013-04-05 11:05:00,59.3,13.1,29.87,ENE,66,3.0,7.0,16,0.00,,CLR,0.00,VWS V14.01,2013-04-05 17:05:00,
2013-04-05 11:10:00,60.9,14.4,29.86,SSE,167,3.0,16.0,16,0.00,,CLR,0.00,VWS V14.01,2013-04-05 17:10:00,
2013-04-05 11:15:00,61.9,10.5,29.87,WNW,294,6.0,16.0,13,0.00,,CLR,0.00,VWS V14.01,2013-04-05 17:15:00,
2013-04-05 11:20:00,62.5,11.0,29.86,WSW,240,12.0,16.0,13,0.00,,CLR,0.00,VWS V14.01,2013-04-05 17:20:00,
2013-04-05 11:25:00,62.5,11.0,29.86,West,279,7.0,16.0,13,0.00,,CLR,0.00,VWS V14.01,2013-04-05 17:25:00,
2013-04-05 11:30:00,62.9,11.3,29.86,WNW,282,9.0,12.0,13,0.00,,CLR,0.00,VWS V14.01,2013-04-05 17:30:00,
2013-04-05 11:36:00,62.1,10.7,29.86,West,274,7.0,15.0,13,0.00,,CLR,0.00,VWS V14.01,2013-04-05 17:36:00,
2013-04-05 11:41:00,62.3,10.9,29.85,WSW,255,15.0,15.0,13,0.00,,CLR,0.00,VWS V14.01,2013-04-05 17:41:00,
2013-04-05 11:46:00,62.4,10.9,29.85,WSW,257,8.0,15.0,13,0.00,,CLR,0.00,VWS V14.01,2013-04-05 17:46:00,
2013-04-05 11:52:00,63.1,11.5,29.85,WSW,256,10.0,15.0,13,0.00,,CLR,0.00,VWS V14.01,2013-04-05 17:52:00,
2013-04-05 11:57:00,62.0,10.6,29.85,WSW,243,16.0,20.0,13,0.00,,CLR,0.00,VWS V14.01,2013-04-05 17:57:00,
2013-04-05 12:00:00,62.1,10.7,29.85,WNW,287,12.0,20.0,13,0.00,,CLR,0.00,VWS V14.01,2013-04-05 18:00:00,
2013-04-05 12:02:00,62.6,11.1,29.84,West,266,13.0,15.0,13,0.00,,CLR,0.00,VWS V14.01,2013-04-05 18:02:00,
2013-04-05 12:08:00,63.2,11.6,29.84,West,266,12.0,19.0,13,0.00,,CLR,0.00,VWS V14.01,2013-04-05 18:08:00,
2013-04-05 12:13:00,63.4,9.9,29.84,WSW,239,16.0,22.0,12,0.00,,CLR,0.00,VWS V14.01,2013-04-05 18:13:00,
2013-04-05 12:18:00,63.0,11.4,29.84,West,259,22.0,25.0,13,0.00,,CLR,0.00,VWS V14.01,2013-04-05 18:18:00,
2013-04-05 12:23:00,62.5,12.7,29.84,WSW,255,17.0,25.0,14,0.00,,CLR,0.00,VWS V14.01,2013-04-05 18:23:00,
2013-04-05 12:28:00,62.7,12.8,29.84,WNW,287,11.0,25.0,14,0.00,,CLR,0.00,VWS V14.01,2013-04-05 18:28:00,
2013-04-05 12:30:00,62.7,11.2,29.84,WNW,282,9.0,25.0,13,0.00,,CLR,0.00,VWS V14.01,2013-04-05 18:30:00,
2013-04-05 12:34:00,61.3,13.3,29.84,WSW,256,14.0,26.0,15,0.00,,FEW110,0.00,VWS V14.01,2013-04-05 18:34:00,
2013-04-05 12:40:00,61.2,16.1,29.83,West,274,14.0,26.0,17,0.00,,FEW110,0.00,VWS V14.01,2013-04-05 18:40:00,
2013-04-05 12:45:00,62.0,15.3,29.83,West,277,15.0,26.0,16,0.00,,FEW110,0.00,VWS V14.01,2013-04-05 18:45:00,
2013-04-05 12:50:00,61.5,14.9,29.82,West,271,11.0,26.0,16,0.00,,BKN110,0.00,VWS V14.01,2013-04-05 18:50:00,
2013-04-05 12:55:00,62.0,15.3,29.82,West,262,15.0,26.0,16,0.00,,BKN110,0.00,VWS V14.01,2013-04-05 18:55:00,
2013-04-05 13:00:00,62.3,14.1,29.82,West,259,8.0,21.0,15,0.00,,BKN110,0.00,VWS V14.01,2013-04-05 19:00:00,
2013-04-05 13:07:00,61.8,13.7,29.81,WNW,288,12.0,21.0,15,0.00,,BKN090,0.00,VWS V14.01,2013-04-05 19:07:00,
2013-04-05 13:12:00,61.6,12.0,29.80,SSW,195,7.0,21.0,14,0.00,,BKN090,0.00,VWS V14.01,2013-04-05 19:12:00,
2013-04-05 13:17:00,62.3,14.1,29.80,WNW,298,11.0,21.0,15,0.00,,BKN090,0.00,VWS V14.01,2013-04-05 19:17:00,
2013-04-05 13:22:00,62.7,12.8,29.79,WSW,253,16.0,23.0,14,0.00,,BKN090,0.00,VWS V14.01,2013-04-05 19:22:00,
2013-04-05 13:28:00,62.6,12.8,29.79,SSW,212,11.0,23.0,14,0.00,,BKN090,0.00,VWS V14.01,2013-04-05 19:28:00,
2013-04-05 13:30:00,62.9,13.0,29.78,WSW,253,15.0,23.0,14,0.00,,CLR,0.00,VWS V14.01,2013-04-05 19:30:00,
2013-04-05 13:33:00,63.4,15.0,29.78,SW,232,10.0,23.0,15,0.00,,SCT090,0.00,VWS V14.01,2013-04-05 19:33:00,
2013-04-05 13:40:00,63.8,15.3,29.78,WSW,252,20.0,27.0,15,0.00,,SCT090,0.00,VWS V14.01,2013-04-05 19:40:00,
2013-04-05 13:45:00,64.0,15.4,29.77,WSW,242,13.0,27.0,15,0.00,,SCT090,0.00,VWS V14.01,2013-04-05 19:45:00,
2013-04-05 13:50:00,63.9,16.9,29.77,SW,233,17.0,27.0,16,0.00,,SCT100,0.00,VWS V14.01,2013-04-05 19:50:00,
2013-04-05 13:56:00,63.1,16.2,29.76,WSW,253,7.0,27.0,16,0.00,,SCT100,0.00,VWS V14.01,2013-04-05 19:56:00,
2013-04-05 14:00:00,63.4,16.5,29.76,WSW,253,16.0,27.0,16,0.00,,CLR,0.00,VWS V14.01,2013-04-05 20:00:00,
2013-04-05 14:02:00,63.3,16.4,29.75,WSW,248,14.0,20.0,16,0.00,,SCT110,0.00,VWS V14.01,2013-04-05 20:02:00,
2013-04-05 14:07:00,63.7,16.7,29.75,WSW,244,13.0,25.0,16,0.00,,SCT110,0.00,VWS V14.01,2013-04-05 20:07:00,
2013-04-05 14:13:00,65.1,16.3,29.74,SW,222,19.0,25.0,15,0.00,,SCT110,0.00,VWS V14.01,2013-04-05 20:13:00,
2013-04-05 14:18:00,65.2,16.4,29.74,ESE,122,7.0,25.0,15,0.00,,SCT110,0.00,VWS V14.01,2013-04-05 20:18:00,
2013-04-05 14:23:00,65.6,16.7,29.73,WSW,251,12.0,25.0,15,0.00,,SCT110,0.00,VWS V14.01,2013-04-05 20:23:00,
2013-04-05 14:28:00,65.7,15.2,29.73,SSW,213,14.0,25.0,14,0.00,,SCT110,0.00,VWS V14.01,2013-04-05 20:28:00,
2013-04-05 14:30:00,66.1,15.6,29.73,West,269,15.0,25.0,14,0.00,,CLR,0.00,VWS V14.01,2013-04-05 20:30:00,
2013-04-05 14:33:00,66.1,15.6,29.73,WSW,253,10.0,24.0,14,0.00,,BKN110,0.00,VWS V14.01,2013-04-05 20:33:00,
2013-04-05 14:39:00,66.0,15.5,29.72,WSW,256,18.0,31.0,14,0.00,,BKN110,0.00,VWS V14.01,2013-04-05 20:39:00,
2013-04-05 14:45:00,65.1,14.8,29.71,West,269,7.0,31.0,14,0.00,,BKN110,0.00,VWS V14.01,2013-04-05 20:45:00,
2013-04-05 14:50:00,65.7,15.2,29.71,West,271,21.0,31.0,14,0.00,,BKN110,0.00,VWS V14.01,2013-04-05 20:50:00,
2013-04-05 14:56:00,65.4,15.0,29.71,West,264,19.0,31.0,14,0.00,,BKN110,0.00,VWS V14.01,2013-04-05 20:56:00,
2013-04-05 15:00:00,65.4,13.3,29.71,WNW,282,17.0,31.0,13,0.00,,CLR,0.00,VWS V14.01,2013-04-05 21:00:00,
2013-04-05 15:03:00,64.7,14.4,29.70,SW,224,16.0,20.0,14,0.00,,SCT110,0.00,VWS V14.01,2013-04-05 21:03:00,
2013-04-05 15:08:00,65.4,15.0,29.70,West,277,13.0,20.0,14,0.00,,SCT110,0.00,VWS V14.01,2013-04-05 21:08:00,
2013-04-05 15:13:00,65.7,13.5,29.70,WNW,284,26.0,26.0,13,0.00,,SCT110,0.00,VWS V14.01,2013-04-05 21:13:00,
2013-04-05 15:18:00,66.0,13.8,29.69,SW,231,16.0,26.0,13,0.00,,SCT110,0.00,VWS V14.01,2013-04-05 21:18:00,
2013-04-05 15:23:00,65.6,11.6,29.68,West,262,17.0,26.0,12,0.00,,SCT110,0.00,VWS V14.01,2013-04-05 21:23:00,
2013-04-05 15:29:00,65.7,11.7,29.68,WSW,251,19.0,26.0,12,0.00,,SCT110,0.00,VWS V14.01,2013-04-05 21:29:00,
2013-04-05 15:30:00,65.7,9.8,29.68,WNW,285,10.0,26.0,11,0.00,,CLR,0.00,VWS V14.01,2013-04-05 21:30:00,
2013-04-05 15:34:00,65.8,9.9,29.67,SW,228,12.0,17.0,11,0.00,,BKN120,0.00,VWS V14.01,2013-04-05 21:34:00,
2013-04-05 15:40:00,66.0,10.0,29.67,WSW,239,8.0,18.0,11,0.00,,BKN120,0.00,VWS V14.01,2013-04-05 21:40:00,
2013-04-05 15:46:00,66.0,12.0,29.67,WSW,243,20.0,32.0,12,0.00,,SCT120,0.00,VWS V14.01,2013-04-05 21:46:00,
2013-04-05 15:52:00,65.8,9.9,29.67,SW,235,10.0,32.0,11,0.00,,SCT120,0.00,VWS V14.01,2013-04-05 21:52:00,
2013-04-05 15:57:00,65.9,11.9,29.66,West,267,9.0,32.0,12,0.00,,SCT120,0.00,VWS V14.01,2013-04-05 21:57:00,
2013-04-05 16:00:00,66.3,12.2,29.66,WSW,249,12.0,32.0,12,0.00,,CLR,0.00,VWS V14.01,2013-04-05 22:00:00,
2013-04-05 16:02:00,66.5,10.4,29.66,West,269,9.0,16.0,11,0.00,,CLR,0.00,VWS V14.01,2013-04-05 22:02:00,
2013-04-05 16:07:00,66.4,10.3,29.66,WSW,255,12.0,25.0,11,0.00,,CLR,0.00,VWS V14.01,2013-04-05 22:07:00,
2013-04-05 16:13:00,65.8,9.9,29.65,West,261,10.0,25.0,11,0.00,,CLR,0.00,VWS V14.01,2013-04-05 22:13:00,
2013-04-05 16:18:00,66.1,10.1,29.65,West,263,17.0,25.0,11,0.00,,CLR,0.00,VWS V14.01,2013-04-05 22:18:00,
2013-04-05 16:23:00,65.9,11.9,29.65,SW,228,14.0,25.0,12,0.00,,CLR,0.00,VWS V14.01,2013-04-05 22:23:00,
2013-04-05 16:28:00,66.7,10.6,29.65,West,263,13.0,25.0,11,0.00,,CLR,0.00,VWS V14.01,2013-04-05 22:28:00,
2013-04-05 16:30:00,66.6,10.5,29.65,WSW,248,17.0,25.0,11,0.00,,CLR,0.00,VWS V14.01,2013-04-05 22:30:00,
2013-04-05 16:34:00,66.3,10.2,29.64,South,186,9.0,18.0,11,0.00,,CLR,0.00,VWS V14.01,2013-04-05 22:34:00,
2013-04-05 16:39:00,66.2,10.2,29.64,SW,221,6.0,24.0,11,0.00,,CLR,0.00,VWS V14.01,2013-04-05 22:39:00,
2013-04-05 16:44:00,66.7,10.6,29.64,WNW,291,13.0,24.0,11,0.00,,CLR,0.00,VWS V14.01,2013-04-05 22:44:00,
2013-04-05 16:49:00,66.8,10.6,29.64,West,281,11.0,24.0,11,0.00,,CLR,0.00,VWS V14.01,2013-04-05 22:49:00,
2013-04-05 16:54:00,66.9,10.7,29.64,WSW,242,16.0,25.0,11,0.00,,CLR,0.00,VWS V14.01,2013-04-05 22:54:00,
2013-04-05 16:59:00,66.9,10.7,29.64,West,277,6.0,11.0,11,0.00,,CLR,0.00,VWS V14.01,2013-04-05 22:59:00,
2013-04-05 17:00:00,66.9,10.7,29.64,West,259,11.0,25.0,11,0.00,,CLR,0.00,VWS V14.01,2013-04-05 23:00:00,
2013-04-05 17:05:00,66.9,10.7,29.64,SW,232,19.0,23.0,11,0.00,,CLR,0.00,VWS V14.01,2013-04-05 23:05:00,
2013-04-05 17:10:00,65.4,11.5,29.63,WSW,251,14.0,23.0,12,0.00,,CLR,0.00,VWS V14.01,2013-04-05 23:10:00,
2013-04-05 17:15:00,64.9,11.1,29.63,WSW,257,9.0,24.0,12,0.00,,CLR,0.00,VWS V14.01,2013-04-05 23:15:00,
2013-04-05 17:21:00,65.8,11.8,29.63,WSW,255,18.0,24.0,12,0.00,,CLR,0.00,VWS V14.01,2013-04-05 23:21:00,
2013-04-05 17:26:00,66.1,12.0,29.63,West,260,23.0,24.0,12,0.00,,CLR,0.00,VWS V14.01,2013-04-05 23:26:00,
2013-04-05 17:30:00,65.7,11.7,29.63,WSW,248,12.0,27.0,12,0.00,,CLR,0.00,VWS V14.01,2013-04-05 23:30:00,
2013-04-05 17:32:00,65.0,11.2,29.63,SW,233,22.0,22.0,12,0.00,,FEW120,0.00,VWS V14.01,2013-04-05 23:32:00,
2013-04-05 17:37:00,64.2,10.6,29.63,West,281,13.0,22.0,12,0.00,,FEW120,0.00,VWS V14.01,2013-04-05 23:37:00,
2013-04-05 17:42:00,63.9,12.1,29.63,WSW,255,14.0,22.0,13,0.00,,FEW120,0.00,VWS V14.01,2013-04-05 23:42:00,
2013-04-05 17:47:00,63.6,11.9,29.63,WSW,257,12.0,22.0,13,0.00,,FEW120,0.00,VWS V14.01,2013-04-05 23:47:00,
2013-04-05 17:52:00,63.1,13.2,29.64,SW,236,18.0,25.0,14,0.00,,FEW120,0.00,VWS V14.01,2013-04-05 23:52:00,
2013-04-05 17:58:00,62.4,12.6,29.63,WNW,283,8.0,25.0,14,0.00,,FEW120,0.00,VWS V14.01,2013-04-05 23:58:00,
2013-04-05 18:00:00,62.3,12.5,29.63,SW,233,12.0,25.0,14,0.00,,CLR,0.00,VWS V14.01,2013-04-06 00:00:00,
2013-04-05 18:03:00,62.4,12.6,29.63,WSW,246,12.0,22.0,14,0.00,,SCT110,0.00,VWS V14.01,2013-04-06 00:03:00,
2013-04-05 18:09:00,62.6,12.8,29.63,SW,225,13.0,22.0,14,0.00,,SCT110,0.00,VWS V14.01,2013-04-06 00:09:00,
2013-04-05 18:15:00,62.3,12.5,29.63,West,269,5.0,22.0,14,0.00,,SCT110,0.00,VWS V14.01,2013-04-06 00:15:00,
2013-04-05 18:20:00,62.0,13.9,29.63,SW,217,13.0,22.0,15,0.00,,SCT110,0.00,VWS V14.01,2013-04-06 00:20:00,
2013-04-05 18:25:00,61.5,14.9,29.65,West,270,19.0,26.0,16,0.00,,SCT110,0.00,VWS V14.01,2013-04-06 00:25:00,
2013-04-05 18:30:00,61.1,14.6,29.65,West,276,18.0,19.0,16,0.00,,BKN110,0.00,VWS V14.01,2013-04-06 00:30:00,
2013-04-05 18:36:00,60.8,15.7,29.64,SW,225,11.0,23.0,17,0.00,,BKN110,0.00,VWS V14.01,2013-04-06 00:36:00,
2013-04-05 18:42:00,60.9,14.4,29.64,WSW,257,8.0,23.0,16,0.00,,BKN110,0.00,VWS V14.01,2013-04-06 00:42:00,
2013-04-05 18:47:00,60.7,15.7,29.63,WSW,257,12.0,23.0,17,0.00,,FEW120,0.00,VWS V14.01,2013-04-06 00:47:00,
2013-04-05 18:52:00,60.5,15.5,29.64,SW,228,9.0,23.0,17,0.00,,FEW120,0.00,VWS V14.01,2013-04-06 00:52:00,
2013-04-05 18:58:00,60.3,15.3,29.63,SW,231,7.0,23.0,17,0.00,,FEW120,0.00,VWS V14.01,2013-04-06 00:58:00,
2013-04-05 19:00:00,60.3,15.3,29.64,West,266,9.0,23.0,17,0.00,,CLR,0.00,VWS V14.01,2013-04-06 01:00:00,
2013-04-05 19:03:00,60.5,15.5,29.63,West,263,5.0,10.0,17,0.00,,FEW120,0.00,VWS V14.01,2013-04-06 01:03:00,
2013-04-05 19:08:00,60.5,15.5,29.63,WSW,257,6.0,11.0,17,0.00,,FEW120,0.00,VWS V14.01,2013-04-06 01:08:00,
2013-04-05 19:13:00,60.3,16.6,29.63,West,263,6.0,11.0,18,0.00,,FEW120,0.00,VWS V14.01,2013-04-06 01:13:00,
2013-04-05 19:18:00,60.1,16.5,29.63,West,265,4.0,11.0,18,0.00,,FEW120,0.00,VWS V14.01,2013-04-06 01:18:00,
2013-04-05 19:24:00,60.0,16.4,29.64,West,262,20.0,24.0,18,0.00,,FEW120,0.00,VWS V14.01,2013-04-06 01:24:00,
2013-04-05 19:29:00,60.0,16.4,29.63,West,269,17.0,29.0,18,0.00,,FEW120,0.00,VWS V14.01,2013-04-06 01:29:00,
2013-04-05 19:30:00,60.0,16.4,29.63,WSW,248,19.0,29.0,18,0.00,,CLR,0.00,VWS V14.01,2013-04-06 01:30:00,
2013-04-05 19:34:00,60.0,16.4,29.63,WNW,292,10.0,19.0,18,0.00,,BKN120,0.00,VWS V14.01,2013-04-06 01:34:00,
2013-04-05 19:40:00,59.9,16.3,29.63,West,259,10.0,19.0,18,0.00,,BKN120,0.00,VWS V14.01,2013-04-06 01:40:00,
2013-04-05 19:45:00,60.3,15.3,29.63,West,266,14.0,19.0,17,0.00,,BKN120,0.00,VWS V14.01,2013-04-06 01:45:00,
2013-04-05 19:50:00,60.5,15.5,29.64,WSW,258,8.0,19.0,17,0.00,,BKN120,0.00,VWS V14.01,2013-04-06 01:50:00,
2013-04-05 19:55:00,60.3,15.3,29.64,West,263,9.0,19.0,17,0.00,,BKN120,0.00,VWS V14.01,2013-04-06 01:55:00,
2013-04-05 20:00:00,60.0,15.1,29.65,West,260,4.0,10.0,17,0.00,,BKN120,0.00,VWS V14.01,2013-04-06 02:00:00,
2013-04-05 20:05:00,59.8,13.5,29.65,WNW,282,8.0,10.0,16,0.00,,BKN120,0.00,VWS V14.01,2013-04-06 02:05:00,
2013-04-05 20:12:00,59.5,13.3,29.66,West,263,5.0,11.0,16,0.00,,BKN120,0.00,VWS V14.01,2013-04-06 02:12:00,
2013-04-05 20:17:00,59.1,13.0,29.66,NW,304,9.0,11.0,16,0.00,,BKN120,0.00,VWS V14.01,2013-04-06 02:17:00,
2013-04-05 20:22:00,58.5,15.2,29.66,North,352,1.0,11.0,18,0.00,,BKN120,0.00,VWS V14.01,2013-04-06 02:22:00,
2013-04-05 20:28:00,57.8,15.8,29.67,NW,314,5.0,11.0,19,0.00,,BKN120,0.00,VWS V14.01,2013-04-06 02:28:00,
2013-04-05 20:30:00,57.6,16.8,29.67,NE,43,2.0,11.0,20,0.00,,CLR,0.00,VWS V14.01,2013-04-06 02:30:00,
2013-04-05 20:33:00,57.3,16.6,29.67,NW,320,0.0,4.0,20,0.00,,SCT120,0.00,VWS V14.01,2013-04-06 02:33:00,
2013-04-05 20:38:00,56.8,17.3,29.67,North,356,0.0,4.0,21,0.00,,SCT120,0.00,VWS V14.01,2013-04-06 02:38:00,
2013-04-05 20:43:00,56.4,18.0,29.68,ENE,59,0.0,4.0,22,0.00,,SCT120,0.00,VWS V14.01,2013-04-06 02:43:00,
2013-04-05 20:50:00,55.8,18.6,29.68,NW,319,1.0,4.0,23,0.00,,FEW120,0.00,VWS V14.01,2013-04-06 02:50:00,
2013-04-05 20:55:00,55.6,18.4,29.68,NW,307,0.0,6.0,23,0.00,,FEW120,0.00,VWS V14.01,2013-04-06 02:55:00,
2013-04-05 21:00:00,55.0,18.9,29.69,NE,44,0.0,0.0,24,0.00,,FEW120,0.00,VWS V14.01,2013-04-06 03:00:00,
2013-04-05 21:07:00,54.5,18.5,29.69,NW,307,0.0,3.0,24,0.00,,CLR,0.00,VWS V14.01,2013-04-06 03:07:00,
2013-04-05 21:12:00,54.0,19.0,29.69,ENE,74,0.0,3.0,25,0.00,,CLR,0.00,VWS V14.01,2013-04-06 03:12:00,
2013-04-05 21:17:00,53.6,18.6,29.69,ENE,75,0.0,3.0,25,0.00,,CLR,0.00,VWS V14.01,2013-04-06 03:17:00,
2013-04-05 21:22:00,53.1,18.2,29.70,ESE,105,1.0,3.0,25,0.00,,CLR,0.00,VWS V14.01,2013-04-06 03:22:00,
2013-04-05 21:28:00,52.5,18.6,29.70,ESE,111,3.0,4.0,26,0.00,,CLR,0.00,VWS V14.01,2013-04-06 03:28:00,
2013-04-05 21:30:00,52.3,18.5,29.70,SE,131,3.0,4.0,26,0.00,,CLR,0.00,VWS V14.01,2013-04-06 03:30:00,
2013-04-05 21:33:00,52.1,19.2,29.70,ESE,121,3.0,3.0,27,0.00,,CLR,0.00,VWS V14.01,2013-04-06 03:33:00,
2013-04-05 21:40:00,51.2,18.4,29.70,SE,124,3.0,5.0,27,0.00,,CLR,0.00,VWS V14.01,2013-04-06 03:40:00,
2013-04-05 21:45:00,51.1,19.1,29.70,SE,134,2.0,5.0,28,0.00,,CLR,0.00,VWS V14.01,2013-04-06 03:45:00,
2013-04-05 21:50:00,51.9,19.8,29.70,SSE,148,1.0,5.0,28,0.00,,CLR,0.00,VWS V14.01,2013-04-06 03:50:00,
2013-04-05 21:55:00,51.5,19.5,29.70,SE,131,2.0,5.0,28,0.00,,CLR,0.00,VWS V14.01,2013-04-06 03:55:00,
2013-04-05 22:00:00,50.4,19.4,29.71,ESE,113,2.0,3.0,29,0.00,,CLR,0.00,VWS V14.01,2013-04-06 04:00:00,
2013-04-05 22:01:00,50.3,19.3,29.70,SE,124,2.0,4.0,29,0.00,,CLR,0.00,VWS V14.01,2013-04-06 04:01:00,
2013-04-05 22:07:00,49.5,19.4,29.70,SE,129,5.0,6.0,30,0.00,,CLR,0.00,VWS V14.01,2013-04-06 04:07:00,
2013-04-05 22:10:00,49.1,19.0,29.70,SE,141,4.0,6.0,30,0.00,,CLR,0.00,VWS V14.01,2013-04-06 04:10:00,
2013-04-05 22:15:00,48.9,19.6,29.71,SE,127,4.0,6.0,31,0.00,,CLR,0.00,VWS V14.01,2013-04-06 04:15:00,
2013-04-05 22:20:00,49.1,19.8,29.71,ESE,118,3.0,6.0,31,0.00,,CLR,0.00,VWS V14.01,2013-04-06 04:20:00,
2013-04-05 22:26:00,49.5,19.4,29.71,ESE,105,6.0,6.0,30,0.00,,CLR,0.00,VWS V14.01,2013-04-06 04:26:00,
2013-04-05 22:30:00,49.7,19.5,29.71,ESE,122,5.0,6.0,30,0.00,,CLR,0.00,VWS V14.01,2013-04-06 04:30:00,
2013-04-05 22:31:00,49.9,19.7,29.71,SE,130,4.0,6.0,30,0.00,,CLR,0.00,VWS V14.01,2013-04-06 04:31:00,
2013-04-05 22:37:00,50.2,20.0,29.70,ESE,111,4.0,6.0,30,0.00,,CLR,0.00,VWS V14.01,2013-04-06 04:37:00,
2013-04-05 22:42:00,50.1,19.1,29.71,ESE,117,1.0,6.0,29,0.00,,CLR,0.00,VWS V14.01,2013-04-06 04:42:00,
2013-04-05 22:47:00,50.4,19.4,29.71,ESE,122,1.0,6.0,29,0.00,,FEW110,0.00,VWS V14.01,2013-04-06 04:47:00,
2013-04-05 22:53:00,50.7,18.8,29.70,East,98,0.0,6.0,28,0.00,,FEW110,0.00,VWS V14.01,2013-04-06 04:53:00,
2013-04-05 22:58:00,50.3,18.5,29.70,East,98,0.0,6.0,28,0.00,,FEW110,0.00,VWS V14.01,2013-04-06 04:58:00,
2013-04-05 23:00:00,50.2,18.4,29.70,East,98,0.0,6.0,28,0.00,,CLR,0.00,VWS V14.01,2013-04-06 05:00:00,
2013-04-05 23:03:00,49.8,18.0,29.70,SSE,162,0.0,0.0,28,0.00,,BKN110,0.00,VWS V14.01,2013-04-06 05:03:00,
2013-04-05 23:08:00,50.0,18.2,29.70,South,169,0.0,3.0,28,0.00,,BKN110,0.00,VWS V14.01,2013-04-06 05:08:00,
2013-04-05 23:13:00,50.4,18.5,29.70,SSE,155,1.0,3.0,28,0.00,,BKN110,0.00,VWS V14.01,2013-04-06 05:13:00,
2013-04-05 23:19:00,50.6,17.9,29.70,South,191,1.0,3.0,27,0.00,,BKN110,0.00,VWS V14.01,2013-04-06 05:19:00,
2013-04-05 23:25:00,50.7,18.0,29.70,SSW,195,1.0,3.0,27,0.00,,BKN110,0.00,VWS V14.01,2013-04-06 05:25:00,
2013-04-05 23:30:00,50.4,17.7,29.70,SE,135,2.0,2.0,27,0.00,,BKN110,0.00,VWS V14.01,2013-04-06 05:30:00,
2013-04-05 23:35:00,50.3,18.5,29.70,SSE,168,1.0,2.0,28,0.00,,FEW100,0.00,VWS V14.01,2013-04-06 05:35:00,
2013-04-05 23:40:00,49.7,17.9,29.70,ESE,122,3.0,3.0,28,0.00,,FEW100,0.00,VWS V14.01,2013-04-06 05:40:00,
2013-04-05 23:45:00,49.0,18.1,29.70,SE,129,4.0,5.0,29,0.00,,FEW100,0.00,VWS V14.01,2013-04-06 05:45:00,
2013-04-05 23:50:00,48.5,17.7,29.70,SSE,150,2.0,5.0,29,0.00,,CLR,0.00,VWS V14.01,2013-04-06 05:50:00,
2013-04-05 23:55:00,48.7,17.9,29.70,SSE,157,1.0,5.0,29,0.00,,CLR,0.00,VWS V14.01,2013-04-06 05:55:00,